Terminal Aerodrome Forecast
Issued by NWS Paducah, KY

Home | Current Version | Previous Version | Text Only | Print | Product List | Glossary On
Versions: 1 2 3 4 5 6 7 8 9 10 11 12 13 14 15 16
000
FTUS43 KPAH 301100
TAFEVV
TAF
KEVV 301120Z 3012/3112 00000KT P6SM SKC
     FM301500 26005KT P6SM SCT040 BKN250
     FM310100 00000KT P6SM SKC=

USA.gov is the U.S. government's official web portal to all federal, state and local government web resources and services.